GEFSNGP_850_meantemp_228.txt.gz
Temperature
23 24 26 26 26 26 25 23 22 23 23 24 24 24 24 25 25 25 25 25 25 25 25 25 25 24 24 23 23 23 22 22 21 21 20 20 20 19 19 19 19 18 18 17
23 25 25 26 26 26 25 25 24 24 24 23 24 24 24 24 24 24 24 24 25 25 25 24 24 24 24 23 23 23 22 22 21 21 20 20 19 19 19 19 18 18 18 17
21 23 24 24 24 25 25 24 24 24 23 23 22 22 23 23 24 24 24 24 24 24 24 24 24 24 24 24 23 22 22 22 21 21 20 20 19 19 19 18 18 18 17 17
19 22 23 22 23 25 24 24 23 23 23 22 22 23 24 24 24 24 24 24 24 24 24 24 24 24 23 23 22 22 22 21 21 20 20 19 19 19 19 18 18 18 17 17
17 20 21 22 24 24 23 22 22 22 22 22 23 23 23 24 25 25 24 24 24 24 24 24 24 23 23 22 22 21 21 21 20 20 20 19 19 19 18 18 18 17 17 17
17 20 20 21 23 25 23 21 22 22 21 22 22 20 21 23 24 24 24 24 24 24 24 23 23 23 23 22 22 21 21 21 20 20 19 19 19 19 18 18 18 17 17 17
17 19 19 20 22 24 22 20 21 22 22 23 21 21 23 23 23 23 23 23 23 23 23 23 23 22 22 22 22 21 21 20 20 20 19 19 19 18 18 18 17 17 17 16
16 18 18 20 21 20 19 21 21 22 23 23 22 23 23 23 23 23 23 22 22 22 22 22 22 22 21 21 21 21 20 20 20 19 19 19 18 18 18 17 17 17 16 16
16 17 18 20 20 21 21 21 21 21 22 22 22 22 22 22 22 22 22 22 21 21 21 21 21 21 21 21 20 20 20 20 19 19 19 18 18 18 17 17 17 16 16 16
16 17 18 20 20 21 21 21 21 21 22 22 21 21 21 21 21 21 21 21 21 21 21 20 20 20 20 20 20 19 19 19 19 18 18 18 17 17 17 17 16 16 16 16
16 17 18 20 20 21 21 21 21 21 21 21 21 21 21 21 20 20 20 20 20 20 20 19 19 19 19 19 19 19 18 18 18 18 18 17 17 17 17 17 17 17 16 16
15 17 16 18 20 20 20 20 20 20 20 20 20 20 20 20 20 19 19 19 19 19 19 19 19 19 19 18 18 18 18 17 17 17 17 17 16 16 16 16 16 16 16 15
18 19 19 19 19 19 19 19 20 20 19 19 19 19 19 19 18 18 18 18 18 18 18 18 18 18 18 18 18 17 17 17 17 16 16 16 16 16 16 15 15 15 15 15
18 19 18 19 18 19 19 19 19 19 19 19 18 18 18 18 17 17 17 17 17 17 17 17 17 17 17 17 17 17 17 16 16 16 16 16 15 15 15 15 15 15 15 15
18 18 18 18 18 18 18 18 18 18 18 18 17 17 17 17 16 16 16 16 16 16 16 16 16 16 16 16 16 16 16 16 16 15 15 15 15 15 15 15 15 14 14 14
17 17 17 18 18 18 18 18 17 17 17 17 16 16 16 16 16 16 15 16 16 16 15 15 15 15 15 16 16 16 16 15 15 15 15 15 15 15 14 14 14 14 14 14
17 16 17 17 17 17 17 17 16 16 16 16 15 15 15 15 15 15 15 15 15 15 14 14 15 15 15 15 15 15 15 15 15 14 14 14 14 14 14 14 14 14 14 14
16 16 16 16 16 16 16 16 16 16 15 15 15 15 15 14 14 14 14 14 14 14 14 14 14 14 14 14 14 14 14 14 14 14 14 14 14 14 13 13 13 13 13 13
16 16 16 16 16 16 15 15 15 15 15 15 14 14 14 14 14 13 13 13 13 13 13 13 13 13 13 14 14 14 14 14 14 14 14 14 13 13 13 13 13 13 13 13
15 15 15 15 15 15 15 14 14 14 14 14 14 14 13 13 13 13 13 13 13 12 12 13 13 13 13 13 13 13 13 13 13 13 13 13 13 13 13 13 12 12 12 12
14 14 14 14 14 14 14 14 14 14 13 13 13 13 13 12 12 12 12 12 12 12 12 12 12 12 12 12 13 13 13 13 13 13 13 13 13 12 12 12 12 12 12 12
13 14 14 14 14 13 13 13 13 13 13 13 13 12 12 12 12 12 12 12 12 12 12 12 12 12 12 12 12 12 12 12 12 12 12 12 12 12 12 12 12 12 11 11
13 13 13 13 13 13 13 13 13 13 12 12 12 12 12 12 12 11 11 11 11 11 11 11 12 12 12 12 12 12 12 12 12 12 12 12 11 11 11 11 11 11 11 11
12 12 12 12 12 12 12 12 12 12 12 12 12 12 12 11 11 11 11 11 11 11 11 11 11 11 11 11 11 11 11 11 11 11 11 11 11 11 11 11 11 11 11 11
12 12 12 12 12 12 12 12 12 12 12 12 11 11 11 11 11 11 11 11 11 11 11 11 11 11 11 11 11 11 11 11 11 11 11 10 10 10 10 10 10 10 10 10
11 11 11 12 12 12 12 11 11 11 11 11 11 11 11 11 11 11 11 11 11 10 10 11 11 11 11 10 10 10 10 10 10 10 10 10 10 10 10 10 10 10 10 10
11 11 11 11 11 11 11 11 11 11 11 11 11 11 11 11 11 11 11 10 10 10 10 10 10 10 10 10 10 10 10 10 10 10 10 10 10 10 10 10 10 9 9 9

GEFSNGP_850_meantemp_234.txt.gz
Temperature
20 21 22 23 23 21 21 20 20 21 21 22 21 21 21 22 23 23 24 24 25 25 25 25 24 24 24 24 23 23 22 22 22 21 21 20 20 20 19 19 19 18 18 18
21 21 22 22 22 22 22 21 21 21 21 20 20 21 21 21 22 22 23 24 24 25 25 25 25 24 24 24 23 23 22 22 21 21 21 20 20 20 19 19 18 18 18 18
19 20 22 21 21 21 21 20 21 21 21 20 19 19 20 21 21 22 23 23 24 24 24 24 24 24 24 23 23 22 22 21 21 21 20 20 20 19 19 19 18 18 18 18
17 20 21 20 20 21 21 20 19 20 19 19 19 20 21 22 22 22 23 23 23 23 24 24 24 23 23 23 22 22 22 21 21 20 20 20 19 19 19 18 18 18 18 17
15 18 19 20 20 20 20 20 19 19 18 18 19 20 20 22 22 22 23 23 23 23 23 23 23 23 23 23 22 22 22 21 21 20 20 20 19 19 19 18 18 18 18 17
15 18 19 20 20 20 20 20 19 18 18 18 19 19 19 21 22 22 22 22 23 23 23 23 23 22 22 22 22 22 21 21 21 20 20 20 19 19 18 18 18 17 17 17
15 17 17 18 19 20 20 19 19 19 18 18 18 19 20 21 21 22 22 22 22 22 22 22 22 22 22 22 22 21 21 20 20 20 19 19 19 18 18 18 17 17 17 17
14 16 17 18 18 18 18 19 19 19 19 19 20 20 20 20 21 21 21 22 22 22 22 22 22 21 21 21 21 21 20 20 19 19 19 19 18 18 18 17 17 17 17 16
14 15 16 16 17 19 19 19 19 20 20 20 19 19 19 20 20 20 21 21 21 21 21 21 21 21 21 21 20 20 20 19 19 19 18 18 18 18 17 17 17 16 16 16
13 14 15 17 18 19 19 20 20 20 20 20 19 19 19 19 19 20 20 20 20 20 20 20 20 20 20 20 19 19 19 19 18 18 18 18 17 17 17 17 16 16 16 16
13 14 15 17 17 18 19 19 19 19 20 19 19 19 19 19 19 19 19 19 19 20 19 19 19 19 19 19 19 19 19 18 18 18 17 17 17 17 17 17 16 16 16 15
14 14 14 16 17 18 18 19 19 19 19 19 19 19 18 18 19 19 19 19 19 19 19 18 18 18 18 19 18 18 18 18 17 17 16 16 16 16 16 16 15 15 15 15
16 16 17 17 17 18 18 18 18 18 18 18 18 18 18 18 18 18 18 18 18 18 18 18 18 17 17 17 17 17 17 17 17 16 16 16 15 15 15 15 15 15 15 15
16 16 16 17 17 17 17 18 18 18 18 18 18 18 17 17 17 17 17 17 17 17 17 17 17 17 16 16 16 16 16 16 16 16 15 15 15 15 14 14 14 14 14 14
16 16 16 16 17 17 17 17 17 17 17 17 17 17 17 16 16 16 16 16 16 16 16 16 15 15 15 15 15 15 15 15 15 15 15 15 14 14 14 14 14 14 14 14
15 16 16 16 16 16 17 17 16 16 16 16 16 16 16 16 15 15 15 15 15 15 15 15 15 15 15 14 14 14 14 14 14 14 14 14 14 14 14 14 14 13 13 13
15 15 15 15 16 16 16 16 16 15 15 15 15 15 15 15 14 14 14 14 14 14 14 14 14 14 14 14 14 13 13 13 14 14 14 14 13 13 13 13 13 13 13 13
15 15 15 15 15 15 15 15 15 15 15 14 14 14 14 14 14 13 13 13 13 13 13 13 13 13 13 13 13 13 13 13 13 13 13 13 13 13 13 13 12 12 12 12
15 15 15 15 15 15 15 15 15 14 14 14 14 14 13 13 13 13 12 12 12 12 13 13 12 12 12 12 12 12 12 12 12 12 12 13 13 12 12 12 12 12 12 12
14 14 14 14 14 14 14 14 14 14 14 13 13 13 13 13 12 12 12 12 12 12 12 12 12 12 12 12 12 12 12 12 12 12 12 12 12 12 12 12 12 12 12 11
13 13 13 13 13 13 13 13 13 13 13 13 13 13 12 12 12 12 12 11 11 11 12 12 11 11 11 11 11 11 11 11 11 11 11 11 11 11 11 11 11 11 11 11
12 12 13 13 13 13 13 13 13 13 13 12 12 12 12 12 12 11 11 11 11 11 11 11 11 11 11 11 11 11 11 11 11 11 11 11 11 11 11 11 11 11 11 11
12 12 12 12 12 12 12 12 12 12 12 12 12 12 12 12 11 11 11 11 11 11 11 11 11 11 10 10 10 10 10 10 10 10 10 10 10 10 10 10 10 10 10 10
12 12 12 12 12 11 11 11 11 11 12 12 11 11 11 11 11 11 11 11 11 10 10 10 10 10 10 10 10 10 10 10 10 10 10 10 10 10 10 10 10 10 10 10
11 11 11 11 11 11 11 11 11 11 11 11 11 11 11 11 11 11 10 10 10 10 10 10 10 10 10 10 10 10 9 10 9 9 9 9 9 9 9 9 9 9 10 9
11 11 11 11 11 11 11 11 11 11 11 11 10 10 10 10 10 10 10 10 10 10 10 10 10 9 9 9 9 9 9 9 9 9 9 9 9 9 9 9 9 9 9 9
10 10 10 10 10 10 10 10 10 10 10 10 10 10 10 10 10 10 10 10 10 9 9 9 9 9 9 9 9 9 9 9 9 9 9 9 9 9 9 9 9 8 8 8

GEFSNGP_850_meantemp_240.txt.gz
Temperature
29 30 30 30 30 30 30 30 30 31 31 31 30 30 28 27 27 26 26 25 24 24 23 23 23 23 23 23 22 22 21 21 21 21 21 20 20 20 19 19 19 19 18 18
28 29 29 29 29 29 29 30 30 30 30 30 29 28 27 26 26 25 25 24 24 23 23 22 22 22 23 22 22 22 22 21 21 21 21 20 20 20 19 19 19 19 18 18
27 28 28 28 29 29 29 30 30 30 30 29 28 27 26 25 25 25 24 23 23 23 22 22 22 23 23 23 22 22 22 21 21 20 20 20 20 20 19 19 19 18 18 18
27 27 26 28 29 29 29 29 29 29 29 28 27 26 24 24 24 23 23 23 23 22 22 22 22 22 23 22 22 22 21 21 20 20 20 20 19 19 19 19 18 18 18 18
26 26 27 27 27 28 28 27 28 28 28 27 26 25 24 23 22 22 22 22 22 22 22 22 22 22 22 21 21 21 21 20 20 20 20 20 19 19 19 18 18 18 18 17
25 25 26 27 27 26 27 26 27 27 27 26 26 27 26 22 21 21 21 21 21 21 21 21 21 21 21 21 21 20 20 20 20 19 19 19 19 19 18 18 18 18 17 17
24 25 26 26 25 26 26 26 25 25 25 25 25 25 23 21 21 20 20 20 21 21 21 20 21 21 21 20 20 20 20 19 19 19 19 19 18 18 18 18 18 17 17 17
24 24 25 24 25 25 24 23 23 23 23 23 23 22 21 20 20 20 20 20 20 20 20 20 20 20 20 20 20 19 19 19 19 19 18 18 18 18 17 17 17 17 16 16
24 24 22 22 22 22 21 22 22 22 22 22 21 21 20 20 19 19 19 19 19 19 19 19 19 19 19 19 19 19 19 19 19 18 18 17 17 17 17 17 17 16 16 16
22 22 21 21 21 20 20 20 21 21 21 21 21 20 20 19 19 19 19 19 19 19 19 19 19 19 19 19 19 19 18 18 18 17 17 17 17 17 17 16 16 16 16 16
20 21 20 20 20 20 20 20 20 19 20 20 20 19 19 19 18 18 18 18 18 18 18 18 18 18 18 18 18 18 18 18 17 17 17 16 16 16 16 16 16 16 15 15
21 20 20 19 18 18 19 19 19 19 19 19 19 19 18 18 18 18 18 18 18 17 17 17 18 18 18 17 17 17 17 17 17 16 16 16 16 16 16 15 15 15 15 15
18 18 18 18 18 18 18 18 18 18 18 18 18 18 18 17 17 17 17 17 17 17 17 17 17 17 17 17 16 16 16 16 16 16 16 16 15 15 15 15 15 15 15 14
16 16 17 17 17 17 17 17 17 17 17 17 17 17 17 17 17 16 16 16 16 16 16 16 16 16 16 16 15 15 15 15 15 15 15 15 15 15 15 15 15 14 14 14
15 16 16 16 16 16 17 17 17 17 17 17 16 16 16 16 16 15 15 15 15 15 15 15 15 15 15 15 15 15 15 15 15 14 14 14 14 15 14 14 14 14 14 13
15 15 16 16 16 16 16 16 17 17 16 16 16 16 15 15 15 15 14 14 14 14 14 14 14 14 14 14 14 14 14 14 14 14 14 14 14 14 14 14 14 14 13 13
15 15 15 15 15 16 16 16 16 16 16 15 15 15 15 15 14 14 14 14 14 13 13 13 13 13 13 13 13 14 14 14 13 13 13 13 13 13 13 13 13 13 13 13
14 15 15 15 15 15 15 15 15 15 15 15 14 14 14 14 14 14 13 13 13 13 13 13 13 13 13 13 13 13 13 13 13 13 13 13 13 13 13 13 13 13 13 12
14 14 14 14 14 14 14 14 14 14 14 14 14 13 13 13 13 13 13 13 12 12 12 12 12 12 12 12 12 12 12 12 12 12 12 12 12 12 12 12 12 12 12 12
13 13 13 13 13 13 14 14 13 13 13 13 13 13 13 13 12 12 12 12 12 12 12 12 12 12 11 12 12 12 12 12 12 12 11 12 12 12 12 12 12 12 11 11
13 13 13 13 13 13 13 13 13 13 13 13 13 12 12 12 12 12 12 12 11 11 11 11 11 11 11 11 11 11 11 11 11 11 11 11 11 11 11 11 11 11 11 11
12 12 12 12 12 12 12 12 12 12 12 12 12 12 12 11 11 11 11 11 11 11 11 11 11 11 11 11 11 11 11 11 11 11 11 11 11 11 11 10 11 11 10 10
12 12 12 12 12 12 12 12 12 12 12 12 11 11 11 11 11 11 11 11 11 11 11 11 11 11 11 10 10 10 10 10 10 10 10 10 10 10 10 10 10 10 10 10
11 11 11 11 11 11 11 11 11 11 11 11 11 11 11 11 11 11 11 11 10 11 10 10 10 10 10 10 10 10 10 10 10 10 10 10 10 9 9 9 9 9 9 9
11 11 11 11 11 11 11 11 11 10 11 11 10 10 11 10 10 10 10 10 10 10 10 10 10 10 10 9 9 9 9 9 9 9 9 9 9 9 9 9 9 9 9 9
10 11 11 11 10 10 10 10 10 10 10 10 10 10 10 10 10 10 10 10 10 10 9 9 9 9 9 9 9 9 9 9 9 9 8 8 8 8 8 8 8 8 8 8
10 10 10 10 10 10 10 10 10 10 10 10 10 10 10 10 10 9 9 9 9 9 9 9 9 9 9 9 8 8 8 8 8 8 8 8 8 8 8 8 7 8 8 8

GEFSNGP_850_meantemp_246.txt.gz
Temperature
31 32 32 32 32 33 33 32 31 31 31 31 31 31 30 30 29 29 29 28 28 27 26 26 25 25 24 24 24 23 23 22 22 22 21 21 20 20 20 20 19 19 19 19
29 31 31 32 32 33 33 32 32 32 31 32 31 30 30 29 29 28 27 27 26 26 25 25 25 24 24 24 23 23 22 22 22 21 21 21 21 20 20 20 19 19 19 19
28 30 30 30 32 32 32 33 32 31 31 31 31 30 29 28 28 28 27 26 25 25 24 24 24 24 24 23 23 22 22 22 21 21 21 21 20 20 20 20 19 19 19 19
27 28 27 30 32 33 32 32 32 32 31 31 30 29 28 28 27 27 26 25 25 24 24 23 23 23 23 23 22 22 22 21 21 21 20 20 20 20 20 19 19 19 19 18
26 26 27 29 31 31 31 30 31 31 31 30 29 28 27 27 27 26 25 25 24 24 24 23 23 23 22 22 22 21 21 21 21 20 20 20 20 19 19 19 19 19 18 18
25 25 26 28 30 31 31 29 30 29 29 29 28 27 27 26 26 25 24 24 23 23 23 23 22 22 22 22 21 21 21 21 20 20 20 20 19 19 19 18 18 18 18 18
25 25 26 28 29 30 28 27 27 27 27 27 26 26 25 25 24 24 23 23 23 22 22 22 21 21 21 21 21 21 20 20 20 20 19 19 19 19 18 18 18 18 17 17
25 24 25 27 28 26 25 25 25 25 25 25 25 25 24 24 23 23 22 22 22 22 21 21 21 21 20 20 20 20 20 19 19 19 19 19 19 18 18 18 17 17 17 17
24 24 24 24 24 24 24 24 24 24 24 24 24 24 23 23 22 22 21 21 21 21 21 20 20 20 20 20 20 19 19 19 19 19 19 18 18 18 17 17 17 17 17 16
23 23 24 23 23 23 23 23 23 23 23 23 23 23 23 22 22 21 21 21 20 20 20 20 20 19 19 19 19 19 18 18 18 18 18 18 18 17 17 17 16 16 16 16
22 22 22 22 22 22 22 22 22 22 22 22 22 22 22 21 21 21 20 20 20 19 19 19 19 19 18 18 18 18 18 18 18 18 18 17 17 17 17 17 16 16 16 16
21 22 22 21 21 21 21 21 21 21 21 21 21 21 21 21 20 20 19 19 19 19 18 18 18 18 18 18 17 17 17 17 17 17 17 17 17 16 16 16 16 16 16 16
20 20 20 20 20 20 20 20 20 20 20 20 20 20 20 20 19 19 19 18 18 18 18 17 17 17 17 17 17 17 17 17 17 17 16 16 16 16 16 16 16 16 16 16
19 19 19 19 19 19 19 19 19 19 19 19 19 19 19 19 18 18 18 17 17 17 17 17 17 17 17 17 16 16 16 16 16 16 16 16 16 16 16 15 15 15 15 15
18 18 18 18 19 19 18 18 19 19 19 18 18 18 18 18 18 17 17 17 17 16 16 16 16 16 16 16 16 16 16 16 16 16 16 15 15 15 15 15 15 15 15 15
17 18 18 18 18 18 18 18 18 18 18 18 18 17 17 17 17 17 16 16 16 16 16 16 15 15 15 15 15 15 15 15 15 15 15 15 15 15 15 15 15 14 14 14
17 17 17 17 17 17 17 17 17 17 17 17 17 17 16 16 16 16 16 16 16 15 15 15 15 15 15 15 15 15 15 15 15 15 15 15 15 15 15 14 14 14 14 14
17 17 17 17 17 17 16 16 16 16 16 16 16 16 16 15 15 15 15 15 15 15 14 14 14 14 14 14 14 14 14 14 14 15 14 14 14 14 14 14 14 13 13 13
16 16 16 16 16 16 16 15 16 16 15 15 15 15 15 15 14 14 14 14 14 14 14 14 14 14 13 14 14 14 14 14 14 14 14 14 14 14 14 13 13 13 13 13
15 15 16 15 15 15 15 15 15 15 15 15 15 14 14 14 14 14 14 14 14 13 13 13 13 13 13 13 13 13 13 14 14 14 13 13 13 13 13 13 13 13 12 12
15 15 15 15 15 14 14 14 14 14 14 14 14 14 14 14 14 13 13 13 13 13 13 13 13 12 13 13 13 13 13 13 13 13 13 13 13 13 12 12 12 12 12 12
14 14 14 14 14 14 14 14 14 14 14 13 13 13 13 13 13 13 13 13 12 12 12 12 12 12 12 12 12 12 13 13 13 13 13 12 12 12 12 12 12 11 11 11
14 14 14 13 13 13 13 14 13 13 13 13 13 13 13 13 13 13 12 12 12 12 12 12 12 12 12 12 12 12 12 12 12 12 12 11 11 11 11 11 11 11 10 10
13 13 13 13 13 13 13 13 13 13 13 13 13 12 12 12 12 12 12 12 12 12 11 11 11 11 11 11 11 11 11 11 11 11 11 11 10 10 10 10 10 10 10 9
13 13 13 13 13 13 13 12 12 12 12 12 12 12 12 12 11 11 11 11 11 11 11 11 11 11 11 10 10 10 10 10 10 10 10 10 10 9 9 9 9 9 9 9
13 12 13 12 12 12 12 12 12 12 12 12 12 12 11 11 11 11 11 11 11 11 10 10 10 10 10 10 10 10 10 10 10 10 9 9 9 8 8 8 8 8 8 8
12 12 12 12 12 12 12 12 12 12 12 11 11 11 11 11 11 11 11 10 10 10 10 10 10 10 10 10 10 10 9 9 9 9 8 8 8 8 8 8 7 7 7 7